EW4896 Weather Reports


Display with metric or nautical units.
time (UTC)temp
F
wind
direction
speed
MPH
gust
MPH
rain 1hr
in
rain 24hr
in
rain mn
in
humidity
%
barometer
mb
20260505003037 64 61 1.0 4.0 0.00 0.00 0.00 50 1006.9
20260505001536 64 82 3.0 6.0 0.00 0.00 0.00 48 1006.5
20260505000035 65 69 3.0 9.0 0.00 0.00 0.00 47 1006.2
20260504234534 66 223 5.0 11.0 0.00 0.00 0.00 45 1005.9
20260504233036 67 207 4.0 9.0 0.00 0.00 0.00 43 1005.5
20260504231533 69 74 2.0 5.0 0.00 0.00 0.00 40 1005.2
20260504230032 71 81 3.0 8.0 0.00 0.00 0.00 35 1004.9
20260504224531 71 82 4.0 9.0 0.00 0.00 0.00 35 1004.8
20260504223030 71 240 5.0 10.0 0.00 0.00 0.00 35 1004.6
20260504221529 71 225 4.0 8.0 0.00 0.00 0.00 35 1004.6
20260504220028 71 231 6.0 8.0 0.00 0.00 0.00 35 1004.8
20260504214527 71 232 4.0 8.0 0.00 0.00 0.00 35 1004.7
20260504213027 72 233 7.0 11.0 0.00 0.00 0.00 33 1004.8
20260504211527 73 252 5.0 12.0 0.00 0.00 0.00 32 1004.9
20260504210025 72 236 4.0 8.0 0.00 0.00 0.00 33 1004.7
20260504204526 72 254 6.0 12.0 0.00 0.00 0.00 32 1004.7
20260504203024 72 240 5.0 11.0 0.00 0.00 0.00 32 1004.7
20260504201521 72 298 3.0 14.0 0.00 0.00 0.00 33 1004.7
20260504200034 71 236 3.0 9.0 0.00 0.00 0.00 33 1004.8
20260504194521 71 252 5.0 12.0 0.00 0.00 0.00 32 1005.0
20260504193018 72 238 7.0 11.0 0.00 0.00 0.00 31 1004.9
20260504191527 71 214 6.0 12.0 0.00 0.00 0.00 32 1004.9
20260504190013 71 233 8.0 14.0 0.00 0.00 0.00 31 1005.1
20260504184513 70 239 7.0 14.0 0.00 0.00 0.00 31 1005.4
20260504183020 70 227 6.0 14.0 0.00 0.00 0.00 33 1005.5
20260504181509 70 237 8.0 18.0 0.00 0.00 0.00 32 1005.5
20260504180006 70 204 6.0 18.0 0.00 0.00 0.00 33 1005.7
20260504174505 70 256 7.0 12.0 0.00 0.00 0.00 33 1005.7
20260504173003 69 267 5.0 10.0 0.00 0.00 0.00 35 1005.9
20260504171501 68 223 8.0 17.0 0.00 0.00 0.00 35 1005.9
20260504170108 68 243 9.0 14.0 0.00 0.00 0.00 35 1006.1
20260504081606 44 126 0.0 1.0 0.00 0.00 0.00 72 1008.8
20260504044535 35 215 0.0 2.0 0.00 0.00 0.00 83 1008.7
20260504043027 35 214 0.0 2.0 0.00 0.00 0.00 83 1008.8
20260504041524 35 210 1.0 2.0 0.00 0.00 0.00 82 1008.7
20260504040021 35 194 0.0 1.0 0.00 0.00 0.00 81 1008.6
20260504034524 36 202 1.0 2.0 0.00 0.00 0.00 81 1008.5
20260504033017 36 169 0.0 1.0 0.00 0.00 0.00 80 1008.4
20260504031517 36 161 0.0 1.0 0.00 0.00 0.00 79 1008.3
20260504030031 37 157 0.0 1.0 0.00 0.00 0.00 79 1008.4
20260504024512 37 156 0.0 2.0 0.00 0.00 0.00 78 1008.3
20260504023009 38 154 0.0 0.0 0.00 0.00 0.00 76 1008.3
20260504021507 39 154 0.0 1.0 0.00 0.00 0.00 74 1008.2
20260504020005 39 149 0.0 1.0 0.00 0.00 0.00 73 1008.1
20260504014506 40 152 0.0 1.0 0.00 0.00 0.00 70 1008.1
20260504013110 41 149 0.0 1.0 0.00 0.00 0.00 68 1008.0
20260504011558 42 146 0.0 1.0 0.00 0.00 0.00 67 1007.9
20260504010112 43 142 0.0 1.0 0.00 0.00 0.00 62 1007.7
20260504004624 44 140 0.0 1.0 0.00 0.00 0.00 60 1007.3